This is the latest recevied weather packets stored in our database for station/object KB1YYC. If no packets are shown the sender has not sent any weather packets the latest 10 day(s).
| Time | Temp. | Humidity | Pressure | Rain* | Wind** | Luminosity | Snow |
|---|---|---|---|---|---|---|---|
| 1778066961 | 12.78° C | 86% | 1009.4 hPa | 0 mm | - | 91 W/m² | - |
| 1778066659 | 12.78° C | 86% | 1009.4 hPa | 0 mm | - | 86 W/m² | - |
| 1778066356 | 12.78° C | 85% | 1009.7 hPa | 0 mm | - | 67 W/m² | - |
| 1778066054 | 12.22° C | 86% | 1009.7 hPa | 0 mm | - | 66 W/m² | - |
| 1778065751 | 12.22° C | 86% | 1009.5 hPa | 0 mm | - | 79 W/m² | - |
| 1778065449 | 12.22° C | 87% | 1009.4 hPa | 0 mm | - | 73 W/m² | - |
| 1778065145 | 12.22° C | 87% | 1009.9 hPa | 0 mm | - | 52 W/m² | - |
| 1778064841 | 11.67° C | 88% | 1009.9 hPa | 0 mm | - | 66 W/m² | - |
| 1778064539 | 11.67° C | 88% | 1009.6 hPa | 0 mm | - | 68 W/m² | - |
| 1778064236 | 11.67° C | 88% | 1009.6 hPa | 0 mm | - | 42 W/m² | - |
| 1778063934 | 11.67° C | 88% | 1009.6 hPa | 0 mm | - | 35 W/m² | - |
| 1778063631 | 11.67° C | 88% | 1009.5 hPa | 0 mm | - | 46 W/m² | - |
| 1778063328 | 11.67° C | 88% | 1009.4 hPa | 0 mm | - | 37 W/m² | - |
| 1778063026 | 11.67° C | 88% | 1009.3 hPa | 0 mm | - | 20 W/m² | - |
| 1778062723 | 11.67° C | 88% | 1009.2 hPa | 0 mm | - | 22 W/m² | - |
| 1778062419 | 11.67° C | 89% | 1009.3 hPa | 0 mm | - | 26 W/m² | - |
| 1778062117 | 11.67° C | 89% | 1009.2 hPa | 0 mm | - | 20 W/m² | - |
| 1778061815 | 11.67° C | 89% | 1009.4 hPa | 0 mm | - | 18 W/m² | - |
| 1778061513 | 11.67° C | 89% | 1009.3 hPa | 0 mm | - | 14 W/m² | - |
| 1778061210 | 11.67° C | 89% | 1009.1 hPa | 0 mm | - | 14 W/m² | - |
| 1778060907 | 11.67° C | 89% | 1009.1 hPa | 0 mm | - | 11 W/m² | - |
| 1778060606 | 11.67° C | 89% | 1009.3 hPa | 0 mm | - | 7 W/m² | - |
| 1778060304 | 11.67° C | 88% | 1009.2 hPa | 0 mm | - | 4 W/m² | - |
| 1778060000 | 11.67° C | 87% | 1009.3 hPa | 0 mm | - | 3 W/m² | - |
| 1778059698 | 11.67° C | 87% | 1009 hPa | 0 mm | - | 2 W/m² | - |
* Rain latest hour (hover to see other rain measurements)
** Current wind speed in m/s (hover to see current wind gust speed)